Satellite-Ground Cal/Val Region Overpasses Predictions

Prediction of Satellite NPP Overpassing Cal/Val Region: PacNW

Region Location: (Latitude: 10.00, Longitude: 139.50) to (Latitude: 22.70, Longitude: 165.60).

Table of predicted overpasses for the next 14.0 days since TLE Epoch: 3/13/2013
Interval Starting Time Starting Location Ending Time Ending Location
1 03/13/2013 15:54:32 ( 22.69, 145.92) 03/13/2013 15:58:08 ( 10.01, 142.90)
2 03/14/2013 03:03:38 ( 10.03, 153.43) 03/14/2013 03:07:13 ( 22.65, 150.42)
3 03/14/2013 15:35:31 ( 22.67, 150.67) 03/14/2013 15:39:06 ( 10.05, 147.67)
4 03/15/2013 02:44:37 ( 10.05, 158.18) 03/15/2013 02:48:12 ( 22.67, 155.18)
5 03/15/2013 15:16:31 ( 22.65, 155.42) 03/15/2013 15:20:06 ( 10.03, 152.42)
6 03/16/2013 02:25:36 ( 10.01, 162.95) 03/16/2013 02:29:12 ( 22.69, 159.93)
7 03/16/2013 14:57:29 ( 22.69, 160.19) 03/16/2013 15:01:05 ( 10.01, 157.17)
8 03/17/2013 02:09:08 ( 19.01, 165.59) 03/17/2013 02:10:10 ( 22.65, 164.69)
9 03/17/2013 03:48:05 ( 10.03, 142.32) 03/17/2013 03:51:27 ( 21.89, 139.51)
10 03/17/2013 14:38:29 ( 22.67, 164.94) 03/17/2013 14:42:04 ( 10.05, 161.93)
11 03/17/2013 16:19:59 ( 22.67, 139.56) 03/17/2013 16:20:03 ( 22.44, 139.51)
12 03/18/2013 03:29:05 ( 10.05, 147.07) 03/18/2013 03:32:40 ( 22.67, 144.07)
13 03/18/2013 16:00:58 ( 22.65, 144.31) 03/18/2013 16:04:33 ( 10.03, 141.31)
14 03/19/2013 03:10:03 ( 10.01, 151.84) 03/19/2013 03:13:39 ( 22.69, 148.81)
15 03/19/2013 15:41:57 ( 22.69, 149.08) 03/19/2013 15:45:33 ( 10.01, 146.06)
16 03/20/2013 02:51:03 ( 10.04, 156.59) 03/20/2013 02:54:38 ( 22.66, 153.58)
17 03/20/2013 15:22:56 ( 22.66, 153.83) 03/20/2013 15:26:31 ( 10.05, 150.82)
18 03/21/2013 02:32:01 ( 10.00, 161.35) 03/21/2013 02:35:37 ( 22.68, 158.33)
19 03/21/2013 15:03:55 ( 22.70, 158.59) 03/21/2013 15:07:31 ( 10.02, 155.57)
20 03/22/2013 02:13:38 ( 12.20, 165.60) 03/22/2013 02:16:36 ( 22.65, 163.09)
21 03/22/2013 03:54:31 ( 10.03, 140.72) 03/22/2013 03:56:00 ( 15.26, 139.51)
22 03/22/2013 14:44:55 ( 22.68, 163.34) 03/22/2013 14:48:30 ( 10.06, 160.34)
23
